sat.trackr.live / text

‹ back to catalog

STARLINK-31298

NORAD 59167 · 2024-044R

PAYLOAD ACTIVE UNKNOWN

§ Identity

Operator
Country
US
Launch date
2024-03-04
Launch site
AFETR
Launch vehicle
Mass (kg)
RCS (m²)

Purposes: comms

External: N2YO · Heavens-Above · Gunter

§ Orbital elements

Epoch: 2026-05-24T23:33:38.437632Z

Period
94.27 min
Inclination
43.0008°
Eccentricity
0.0001342
Mean motion
15.27583919 rev/d
Perigee alt
482.1 km
Apogee alt
484.0 km
Semi-major
6,861.2 km
B*
7.5176e-6
RAAN
36.1523°
Arg perigee
260.8553°
Mean anomaly
99.2147°
Rev number
12,523

§ Raw data

STARLINK-312981 59167U 24044R   26144.98169488 -.00000055  00000+0  75176-5 0  99932 59167  43.0008  36.1523 0001342 260.8553  99.2147 15.27583919125239

JSON: /api/v1/satellites/59167 · /tle

For live sub-satellite position, see the globe view (requires WebGL).

§ Visibility from observer

Set your observer location to see the next 7 days of passes ≥ 10°. The values pass through the URL so the page stays shareable.

No JS? Fill the form by hand. The geolocation button needs JavaScript.